Regional Weather Roundup
Issued by NWS

Home | Current Version | Previous Version | Graphics & Text | Print | Product List | Glossary On
Versions: 1 2 3 4 5 6 7 8 9 10 11 12 13 14 15 16 17 18 19 20 21 22 23 24 25 26 27 28 29 30 31 32 33 34 35 36 37 38 39 40 41 42 43 44 45 46 47 48 49 50
000
ASUS43 KOAX 170702
RWRNE

WEATHER ROUNDUP FOR NEBRASKA
NATIONAL WEATHER SERVICE OMAHA NE
100 AM CST FRI NOV 17 2017

NOTES: SATELLITE DATA IS BEING USED TO AUGMENT CLOUD COVER ABOVE
       12000 FEET.
       "FAIR" INDICATES FEW OR NO CLOUDS BELOW 12,000 FEET WITH NO
       SIGNIFICANT WEATHER AND/OR OBSTRUCTIONS TO VISIBILITY.


NEZ001>004-019>022-054>056-170800-
NEBRASKA PANHANDLE

CITY           SKY/WX    TMP DP  RH WIND       PRES   REMARKS
SCOTTSBLUFF    CLOUDY    41  28  60 NE7       29.63F
ALLIANCE       CLOUDY    35  28  75 CALM      29.63F
CHADRON        CLOUDY    45  28  51 W8        29.58F
GORDON         FAIR      37  28  71 W3        29.61S
KIMBALL        CLOUDY    37  27  67 SW8       29.68F WCI  31
SIDNEY         CLOUDY    40  28  62 W9        29.67F WCI  34
$$

NEZ057>060-069>072-079>082-170800-
SOUTHWEST NEBRASKA

CITY           SKY/WX    TMP DP  RH WIND       PRES   REMARKS
NORTH PLATTE   CLOUDY    38  33  82 CALM      29.66F
LEXINGTON      CLOUDY    47  40  77 SE7       29.67F
MCCOOK         PTCLDY    48  38  68 S7        29.65F
OGALLALA       CLOUDY    35  29  79 CALM      29.65S
$$

NEZ005>010-023>029-035>040-094-170800-
NORTH CENTRAL NEBRASKA

CITY           SKY/WX    TMP DP  RH WIND       PRES   REMARKS
VALENTINE      CLEAR     46  34  62 SW6       29.57F
AINSWORTH      CLEAR     47  37  67 SW14      29.59S
BROKEN BOW     CLOUDY    45  37  73 SW10      29.67R
O`NEILL        CLEAR     45  37  73 S9        29.64S
ORD            CLEAR     41  35  79 SE5       29.67S
THEDFORD       CLOUDY    48  37  64 SW6       29.62F
$$

NEZ041-046>049-061>064-073>077-083>087-170800-
SOUTH CENTRAL NEBRASKA

CITY           SKY/WX    TMP DP  RH WIND       PRES   REMARKS
GRAND ISLAND   CLEAR     47  43  86 S18       29.70F
AURORA         CLEAR     45  38  78 S15       29.71F
HASTINGS       CLOUDY    49  44  83 S15G25    29.71F
HEBRON         CLOUDY    49  42  74 S12G17    29.76F
HOLDREGE       CLEAR     45  42  90 S14G20    29.67F
KEARNEY        CLOUDY    48  43  82 S20G25    29.67F
$$

NEZ011>018-030>034-042>045-170800-
NORTHEAST NEBRASKA

CITY           SKY/WX    TMP DP  RH WIND       PRES   REMARKS
NORFOLK        CLEAR     44  34  67 S15G23    29.70F
ALBION         CLEAR     43  34  71 SE9       29.70F
BLAIR          CLOUDY    43  31  62 S15G22    29.78F
COLUMBUS       CLEAR     44  33  65 S17       29.72F
FREMONT        CLOUDY    45  31  59 SE16G23   29.77F
TEKAMAH        CLOUDY    39  29  67 SE14      29.77F WCI  31
WAYNE          CLEAR     39  29  68 S15       29.71F WCI  31
$$

NEZ050>053-065>068-078-088>093-170800-
SOUTHEAST NEBRASKA

CITY           SKY/WX    TMP DP  RH WIND       PRES   REMARKS
LINCOLN        CLOUDY    49  35  58 S15       29.79F
OMAHA EPPLEY   CLOUDY    43  29  57 S14       29.82F
BEATRICE       CLOUDY    50  36  58 S16G22    29.80F
FALLS CITY     CLOUDY    46  31  55 SE15      29.87F
NEBRASKA CITY  PTCLDY    45  32  60 S20       29.83F
PLATTSMOUTH    PTCLDY    43  32  65 SE16      29.82F
$$

NEZ044-045-051>053-067-170800-
OMAHA AREA

CITY           SKY/WX    TMP DP  RH WIND       PRES   REMARKS
OMAHA EPPLEY   CLOUDY    43  29  57 S14       29.82F
BLAIR          CLOUDY    43  31  62 S15G22    29.78F
FREMONT        CLOUDY    45  31  59 SE16G23   29.77F
MILLARD        PTCLDY    41  31  67 SE9       29.81F
OFFUTT AFB     PTCLDY    40  30  65 SE13      29.82F WCI  33
PLATTSMOUTH    PTCLDY    43  32  65 SE16      29.82F
WAHOO          PTSUNNY   43  30  61 S14       29.79F
$$




USA.gov is the U.S. government's official web portal to all federal, state and local government web resources and services.